Probability
0 0 0 0 0 0 0 0 0 0 0 0 0 0 0 0 0 0 0 0 0 0 3 0 0 0 0 3 3 3 3 3 3 3 3 3 3 0 0 0 0 0 0 0
0 0 0 0 0 0 0 0 0 0 0 0 0 0 0 0 0 0 0 0 0 0 0 0 0 0 0 3 3 3 3 3 3 3 3 3 3 0 0 0 0 0 0 0
0 0 0 0 0 0 0 0 0 0 0 0 0 0 0 0 0 0 0 0 0 0 0 0 0 0 0 3 3 3 3 3 3 3 3 3 0 0 0 0 0 0 0 0
0 0 0 0 0 0 0 0 0 0 0 0 0 0 0 0 0 0 0 0 0 0 0 0 0 0 0 3 3 3 3 3 3 3 3 3 3 3 0 0 0 0 0 0
0 0 0 0 0 0 0 0 0 0 0 0 0 0 0 0 0 0 0 0 0 0 0 0 0 3 3 3 3 3 3 3 3 3 3 3 3 0 0 0 0 0 0 0
0 0 0 0 0 0 0 0 0 0 0 0 0 0 0 0 0 0 0 0 0 0 3 3 3 3 3 3 3 3 3 3 3 3 3 3 3 0 0 0 0 0 0 0
0 0 0 0 0 0 0 0 0 0 0 0 0 0 0 0 0 0 0 0 3 3 3 3 3 3 3 3 3 3 3 3 3 3 3 3 3 3 0 0 0 0 0 0
0 0 0 0 0 0 0 0 0 0 0 0 0 0 0 0 0 0 0 0 3 3 0 3 3 3 3 3 3 3 3 3 3 3 3 3 3 3 0 0 0 0 0 0
0 0 0 0 0 0 0 0 0 0 0 0 0 0 0 0 0 0 0 0 3 3 3 3 3 3 3 3 3 3 3 3 3 3 3 3 3 3 0 0 0 0 0 0
0 0 0 0 0 0 0 0 0 0 0 0 0 0 0 0 0 0 0 0 0 3 3 3 3 3 3 3 3 3 3 3 3 3 3 3 3 3 3 0 0 0 0 0
0 0 0 0 0 0 0 0 0 0 0 0 0 0 0 0 0 0 0 0 0 3 3 3 3 3 3 3 3 3 3 3 3 3 3 3 3 0 0 0 0 0 0 0
0 0 0 0 0 0 0 0 0 0 0 0 0 0 0 0 0 0 0 0 0 0 0 0 3 3 3 3 3 3 3 3 3 3 3 0 0 0 0 0 0 0 0 0
0 0 0 0 0 0 0 0 0 0 0 0 0 0 0 0 0 0 0 0 0 0 0 0 0 0 3 3 3 3 3 3 3 0 0 0 0 0 0 0 0 0 0 0
0 0 0 0 0 0 0 0 0 0 0 0 0 0 0 0 0 0 0 0 0 0 0 0 0 0 3 3 3 3 3 3 3 3 0 0 0 0 0 0 0 0 0 0
0 0 0 0 0 0 0 0 0 0 0 0 0 0 0 0 0 0 0 0 0 0 0 0 0 0 0 3 3 3 3 3 3 3 3 0 0 0 0 0 0 0 0 0
0 0 0 0 0 0 0 0 0 0 0 0 0 0 0 0 0 0 0 0 0 0 0 0 0 0 0 0 3 3 3 3 0 0 0 0 0 0 0 0 0 0 0 0
0 0 0 0 0 0 0 0 0 0 0 0 0 0 0 0 0 0 0 0 0 0 0 0 0 0 0 0 0 3 3 0 0 0 0 0 0 0 0 0 0 0 0 0
0 0 0 0 0 0 0 0 0 0 0 0 0 0 0 0 0 0 0 0 0 0 0 0 0 0 0 0 0 0 3 0 0 0 0 0 0 0 0 0 0 0 0 0
0 0 0 0 0 0 0 0 0 0 0 0 0 0 0 0 0 0 0 0 0 0 0 0 0 0 0 0 0 0 3 0 0 0 0 0 0 0 0 0 0 0 0 0
0 0 0 0 0 0 0 0 0 0 0 0 0 0 0 0 0 0 0 0 0 0 0 0 0 0 0 0 0 0 3 0 0 0 0 0 0 0 0 0 0 0 0 0
0 0 0 0 0 0 0 0 0 0 0 0 0 0 0 0 0 0 0 0 0 0 0 0 0 0 0 0 0 3 3 3 0 0 0 0 0 0 0 0 0 0 0 0
0 0 0 0 0 0 0 0 0 0 0 0 0 0 0 0 0 0 0 0 0 0 0 0 0 0 0 0 0 0 0 0 0 0 0 0 0 0 0 0 0 0 0 0
0 0 0 0 0 0 0 0 0 0 0 0 0 0 0 0 0 0 0 0 0 0 0 0 0 0 0 0 0 0 0 0 0 0 0 0 0 0 0 0 0 0 0 0
0 0 0 0 0 0 0 0 0 0 0 0 0 0 0 0 0 0 0 0 0 0 0 0 0 0 0 0 0 0 0 0 0 0 0 0 0 0 0 0 0 0 0 0
0 0 0 0 0 0 0 0 0 0 0 0 0 0 0 0 0 0 0 0 0 0 0 0 0 0 0 0 0 0 0 0 0 0 0 0 0 0 0 0 0 0 0 0
0 0 0 0 0 0 0 0 0 0 0 0 0 0 0 0 0 0 0 0 0 0 0 0 0 0 0 0 0 0 0 0 0 0 0 0 0 0 0 0 0 0 0 0
Height
5864 5865 5864 5865 5865 5865 5865 5865 5864 5864 5864 5864 5863 5863 5863 5862 5862 5861 5861 5860 5860 5859 5858 5857 5856 5855 5854 5853 5852 5851 5850 5849 5847 5846 5845 5843 5842 5841 5840 5838 5837 5836 5835 5834
5862 5861 5862 5862 5862 5862 5862 5862 5862 5862 5862 5861 5861 5861 5861 5860 5860 5859 5859 5859 5858 5858 5857 5856 5855 5854 5853 5852 5851 5849 5848 5847 5845 5844 5843 5842 5840 5839 5838 5837 5835 5834 5833 5832
5858 5859 5859 5859 5859 5860 5860 5860 5860 5860 5859 5859 5859 5859 5859 5858 5858 5857 5857 5857 5856 5856 5855 5854 5853 5852 5851 5850 5849 5848 5846 5845 5843 5842 5841 5840 5838 5837 5836 5835 5833 5832 5831 5829
5855 5855 5856 5856 5856 5857 5857 5857 5857 5857 5857 5857 5857 5857 5857 5856 5856 5855 5855 5854 5854 5854 5853 5852 5851 5850 5849 5848 5847 5845 5844 5843 5841 5840 5839 5837 5836 5835 5834 5832 5831 5829 5828 5827
5852 5853 5853 5853 5854 5854 5855 5855 5855 5854 5854 5854 5854 5853 5855 5853 5853 5853 5852 5852 5851 5851 5850 5849 5848 5848 5847 5846 5844 5843 5842 5841 5839 5838 5836 5835 5834 5833 5831 5830 5828 5827 5826 5824
5849 5850 5850 5851 5851 5852 5852 5852 5852 5851 5851 5851 5851 5850 5851 5851 5851 5850 5850 5849 5848 5848 5847 5847 5846 5845 5844 5843 5842 5841 5840 5838 5837 5836 5834 5832 5831 5830 5828 5827 5826 5824 5823 5821
5846 5847 5847 5847 5848 5848 5849 5849 5849 5848 5848 5848 5848 5847 5848 5848 5848 5847 5847 5846 5845 5845 5844 5844 5843 5842 5841 5840 5839 5838 5837 5836 5834 5833 5831 5830 5828 5826 5825 5823 5822 5821 5820 5818
5843 5844 5844 5844 5845 5845 5845 5846 5846 5846 5845 5845 5844 5843 5844 5844 5844 5843 5843 5842 5842 5841 5840 5840 5839 5839 5838 5837 5836 5835 5833 5832 5831 5830 5828 5826 5824 5823 5821 5820 5818 5817 5816 5815
5840 5841 5841 5841 5841 5842 5842 5842 5843 5842 5841 5841 5840 5840 5840 5840 5839 5839 5839 5839 5838 5837 5837 5836 5835 5835 5834 5833 5832 5831 5830 5828 5827 5826 5824 5822 5820 5819 5817 5816 5814 5813 5812 5811
5836 5837 5838 5838 5838 5838 5838 5838 5838 5838 5837 5837 5837 5836 5836 5836 5835 5835 5834 5834 5834 5833 5832 5832 5831 5831 5830 5829 5828 5826 5825 5824 5823 5821 5820 5818 5816 5814 5813 5811 5810 5809 5807 5806
5832 5833 5834 5834 5833 5834 5834 5834 5834 5833 5833 5833 5832 5834 5832 5831 5830 5830 5830 5830 5829 5829 5828 5827 5827 5826 5825 5824 5823 5822 5821 5820 5818 5817 5815 5813 5812 5810 5808 5807 5805 5804 5802 5801
5827 5828 5829 5829 5829 5829 5829 5829 5829 5829 5828 5827 5827 5830 5826 5826 5825 5825 5825 5825 5824 5824 5823 5823 5822 5821 5820 5819 5818 5817 5815 5814 5813 5811 5810 5808 5806 5805 5803 5801 5800 5798 5797 5796
5823 5824 5824 5824 5826 5825 5824 5823 5823 5824 5823 5822 5822 5824 5821 5821 5820 5820 5820 5819 5819 5818 5818 5817 5816 5816 5815 5813 5812 5811 5810 5808 5807 5806 5804 5802 5801 5799 5798 5796 5794 5793 5792 5791
5818 5818 5819 5820 5819 5819 5819 5819 5818 5818 5818 5817 5817 5817 5816 5815 5815 5815 5814 5813 5813 5813 5812 5811 5811 5810 5809 5808 5807 5805 5804 5803 5801 5800 5798 5797 5795 5793 5792 5790 5788 5787 5786 5784
5813 5813 5813 5813 5814 5813 5813 5814 5813 5813 5812 5812 5812 5811 5811 5810 5809 5809 5808 5808 5807 5807 5806 5806 5805 5804 5803 5802 5801 5799 5798 5797 5795 5794 5792 5791 5789 5787 5785 5784 5782 5780 5779 5778
5807 5807 5808 5808 5808 5808 5807 5808 5807 5807 5806 5805 5805 5805 5805 5804 5804 5803 5802 5802 5801 5800 5799 5799 5798 5797 5797 5795 5794 5793 5792 5790 5789 5787 5786 5784 5782 5780 5779 5777 5775 5773 5772 5771
5801 5802 5802 5803 5802 5802 5802 5802 5801 5801 5800 5799 5799 5800 5798 5798 5797 5797 5796 5795 5794 5793 5793 5792 5791 5791 5790 5789 5787 5786 5785 5783 5782 5780 5778 5777 5775 5773 5772 5770 5768 5766 5765 5764
5795 5795 5795 5796 5797 5796 5798 5795 5795 5794 5793 5793 5792 5792 5792 5791 5791 5790 5789 5789 5788 5787 5786 5785 5784 5783 5782 5781 5780 5779 5777 5776 5774 5773 5771 5769 5767 5766 5764 5762 5760 5759 5757 5756
5788 5788 5788 5789 5788 5789 5790 5789 5788 5787 5787 5786 5786 5785 5784 5784 5783 5783 5782 5781 5781 5780 5779 5778 5777 5776 5775 5774 5772 5771 5770 5768 5767 5765 5763 5761 5759 5757 5755 5754 5753 5751 5750 5749
5781 5781 5782 5781 5781 5782 5784 5782 5780 5781 5780 5779 5778 5778 5777 5777 5776 5776 5775 5774 5773 5772 5771 5770 5769 5768 5767 5766 5764 5763 5762 5761 5759 5757 5755 5753 5751 5749 5748 5746 5745 5743 5742 5741
5774 5774 5774 5774 5773 5774 5775 5774 5774 5774 5774 5772 5771 5771 5770 5769 5769 5768 5767 5766 5765 5764 5763 5762 5760 5759 5758 5757 5756 5755 5753 5752 5751 5749 5747 5745 5743 5741 5739 5737 5736 5735 5734 5733
5766 5767 5767 5767 5766 5769 5767 5766 5766 5766 5765 5764 5763 5762 5762 5761 5760 5759 5758 5757 5756 5755 5754 5753 5751 5750 5749 5748 5746 5746 5745 5744 5742 5741 5739 5737 5735 5733 5731 5729 5728 5727 5726 5725
5759 5760 5759 5760 5761 5760 5759 5759 5758 5758 5757 5756 5755 5754 5753 5752 5751 5750 5749 5748 5747 5746 5745 5744 5742 5741 5740 5739 5737 5736 5735 5734 5733 5732 5730 5728 5726 5724 5723 5722 5720 5719 5718 5717
5751 5751 5751 5752 5752 5752 5751 5750 5750 5749 5749 5747 5746 5745 5744 5743 5742 5741 5740 5739 5738 5736 5735 5734 5733 5732 5730 5729 5728 5726 5725 5724 5723 5722 5721 5719 5717 5715 5714 5713 5712 5710 5710 5709
5743 5743 5743 5743 5744 5743 5743 5742 5742 5741 5740 5739 5738 5737 5735 5734 5733 5732 5731 5730 5728 5727 5725 5724 5723 5721 5720 5719 5717 5716 5715 5714 5713 5712 5711 5709 5708 5706 5705 5703 5702 5701 5701 5700
5734 5735 5735 5735 5735 5735 5734 5734 5733 5732 5731 5730 5729 5728 5726 5724 5723 5722 5721 5720 5718 5717 5715 5713 5712 5711 5710 5709 5707 5706 5705 5703 5703 5702 5700 5699 5697 5696 5695 5694 5693 5692 5692 5691
Wind_Speed
10 10 9 9 9 8 8 7 8 8 7 8 7 7 7 6 6 6 6 6 6 6 6 7 7 8 8 7 7 7 7 7 8 8 7 8 8 7 7 8 7 7 7 7
10 10 9 9 9 9 8 8 8 7 8 8 8 7 7 6 6 6 6 6 7 7 7 7 7 7 8 8 8 8 8 8 8 8 8 9 8 8 8 8 8 8 9 9
10 10 9 9 9 9 8 8 8 8 8 8 9 8 7 6 7 7 6 6 7 7 7 7 8 8 8 8 9 9 9 9 9 10 9 9 9 8 9 9 9 9 9 9
10 9 9 9 9 9 8 8 8 8 9 8 9 8 7 6 6 6 6 6 7 8 8 8 8 9 9 9 9 9 10 10 10 10 10 10 10 10 10 10 10 10 10 10
9 9 9 9 9 9 8 8 8 9 10 9 10 10 8 7 6 7 7 8 8 8 9 9 9 9 10 10 10 10 11 10 10 11 11 11 11 11 11 12 11 11 10 10
10 9 10 10 9 9 9 9 9 10 11 11 11 11 9 9 8 8 8 9 10 10 10 11 11 11 11 11 11 11 11 12 12 12 13 13 13 13 13 12 12 13 12 11
10 10 10 10 10 10 11 11 11 11 11 11 11 12 11 10 10 10 10 11 11 12 12 13 13 12 12 12 12 13 13 13 13 14 14 15 14 15 14 14 14 14 13 13
10 11 10 10 11 11 12 12 13 13 13 12 12 13 13 12 12 12 12 12 13 13 14 14 14 14 14 13 14 14 14 15 15 15 16 16 16 16 15 15 15 14 14 14
11 11 11 11 12 12 13 13 14 14 14 14 14 14 14 14 13 14 14 13 14 15 15 16 16 16 16 16 16 16 16 16 17 17 17 17 16 16 16 16 16 15 15 15
12 12 11 12 12 13 14 14 14 15 15 16 16 16 16 15 16 16 15 15 16 16 16 16 16 17 17 17 18 18 18 17 17 17 17 17 17 17 17 17 17 16 16 16
13 13 12 13 14 14 15 15 15 16 16 17 17 18 17 17 17 17 16 16 17 17 17 17 17 17 18 18 19 19 19 18 18 18 18 18 18 18 18 18 18 18 17 17
14 14 14 15 16 16 16 16 16 16 16 18 19 18 19 19 18 17 18 18 17 18 18 18 18 18 18 19 19 19 19 19 19 19 19 19 19 18 18 19 19 19 19 19
14 15 15 16 16 17 17 17 17 18 18 18 19 19 20 20 18 17 17 18 18 18 17 18 18 19 19 19 19 20 20 20 20 20 20 20 19 19 19 20 20 20 20 20
16 16 17 17 18 17 17 18 18 19 19 19 19 20 21 20 19 19 19 19 19 18 18 18 18 19 20 20 20 21 21 21 21 21 21 21 21 21 21 21 21 21 21 21
17 18 18 18 18 19 19 18 19 20 20 20 19 20 20 21 20 20 21 21 21 20 19 19 19 19 21 21 21 22 21 22 22 22 22 22 22 22 22 22 22 22 22 22
19 19 19 19 19 19 20 19 20 21 21 21 20 21 21 22 21 21 22 22 22 22 21 21 20 20 21 22 22 22 23 24 24 24 24 24 24 24 23 23 24 23 23 22
20 20 21 21 21 22 22 21 21 21 22 22 22 21 22 22 23 23 23 23 23 22 23 23 23 23 23 23 23 23 24 24 25 25 25 25 25 25 25 25 25 24 23 22
21 22 22 22 22 24 22 22 22 23 22 22 22 22 22 23 23 24 24 24 24 24 24 25 25 25 24 25 25 25 25 25 25 26 26 27 27 27 26 26 25 24 24 23
22 22 23 23 23 24 22 22 22 23 22 22 22 22 23 23 24 24 24 25 24 25 25 26 27 26 26 26 26 26 26 27 27 27 27 28 28 28 27 26 25 25 24 24
23 23 23 23 24 23 22 23 23 24 24 23 23 24 24 25 25 25 26 26 26 26 26 27 27 28 28 28 28 28 28 28 28 27 28 28 28 28 27 26 26 25 25 25
23 24 24 24 25 24 23 23 24 25 25 25 24 25 26 26 27 28 28 28 28 28 29 29 29 29 29 29 28 28 28 28 28 28 28 28 29 28 28 27 26 26 26 26
25 25 24 25 25 24 24 24 24 25 26 26 26 26 27 27 28 29 30 30 30 30 29 30 30 30 30 29 29 29 29 29 29 29 29 29 29 29 28 27 26 26 25 26
26 25 25 25 24 24 25 25 25 25 26 26 27 28 29 29 29 30 31 31 31 31 31 31 31 31 31 31 31 31 31 30 30 30 29 29 30 29 29 28 27 27 27 26
26 26 26 26 25 25 26 26 26 26 27 27 28 29 30 31 31 32 32 32 32 32 32 32 33 32 32 32 33 33 32 32 31 31 30 30 30 30 29 29 28 28 27 27
27 27 27 27 27 27 27 27 28 28 28 28 28 30 31 32 32 32 32 32 33 33 34 34 33 33 34 34 34 34 33 33 33 32 32 32 31 30 30 29 29 28 28 28
28 28 28 28 27 28 27 27 28 29 29 30 30 31 32 32 32 32 33 34 34 35 36 35 35 35 35 35 35 35 34 34 34 33 33 32 32 31 30 29 29 29 29 28
Wind_Direction
260 257 255 256 257 258 263 266 264 261 269 279 283 281 279 284 287 293 301 314 323 323 323 322 322 323 325 327 328 328 326 325 325 324 323 321 318 317 317 316 314 314 314 314
256 255 255 256 255 256 261 265 270 271 268 273 279 281 281 282 286 292 304 312 316 320 319 319 318 320 322 321 320 322 322 319 320 318 318 318 316 314 315 317 313 310 309 309
254 255 253 253 254 255 259 266 269 274 274 278 277 274 274 278 286 289 296 307 308 312 311 312 312 315 317 317 316 316 314 313 314 313 313 313 311 311 311 310 311 308 305 307
252 252 251 250 252 255 256 265 271 272 271 277 281 274 269 275 284 288 299 304 305 303 303 306 306 308 311 312 312 311 310 309 308 309 308 308 306 305 306 307 307 307 303 303
249 247 249 249 249 250 250 259 265 269 271 271 274 273 276 278 289 296 302 303 299 301 302 302 300 303 306 306 310 310 307 305 304 303 304 304 302 302 304 304 305 306 305 301
249 249 251 250 250 253 253 258 265 270 271 270 271 273 277 279 290 299 302 300 301 301 302 303 302 300 300 301 302 305 303 303 305 304 305 305 301 300 300 301 302 304 303 301
247 248 251 250 249 252 254 260 265 270 274 273 269 272 278 282 288 293 298 298 298 297 299 299 298 297 296 297 297 299 299 299 300 301 302 301 300 298 295 295 297 297 298 296
249 248 249 250 252 254 257 261 270 275 276 274 272 274 277 280 283 286 293 295 295 293 292 292 291 293 293 294 295 295 295 296 296 297 297 298 298 296 294 294 294 294 294 293
254 252 253 255 256 258 261 263 268 273 274 272 272 274 276 277 281 282 287 291 294 292 289 287 287 289 289 290 292 293 292 292 294 295 295 296 295 294 292 292 292 292 291 290
260 257 256 259 260 261 264 268 269 271 274 272 272 275 279 283 280 281 282 286 289 289 289 287 285 285 286 287 288 290 290 290 291 292 292 293 293 293 292 290 290 290 289 288
260 260 258 262 266 266 268 269 268 272 274 274 273 273 278 281 281 280 278 280 284 286 287 288 285 284 283 284 286 288 288 289 290 290 290 290 290 290 290 290 289 289 288 286
262 264 262 263 266 267 267 268 270 272 273 273 275 275 277 278 278 278 279 280 281 285 285 284 284 282 282 283 285 285 285 286 286 287 288 288 287 287 288 288 287 286 285 284
263 264 266 264 264 265 266 268 270 274 275 274 273 275 279 281 280 282 282 283 284 283 283 283 282 283 283 282 283 284 284 286 286 286 287 287 287 287 288 288 288 286 285 283
261 264 267 267 266 268 267 270 273 273 274 275 275 274 276 279 280 280 281 280 281 281 281 281 280 281 281 282 283 283 283 284 285 285 286 287 287 288 288 289 289 287 286 283
260 262 265 267 268 269 270 272 273 273 275 275 274 274 275 276 278 280 281 281 280 280 280 280 280 280 280 281 283 284 284 284 285 284 285 286 286 288 288 288 288 286 284 282
258 260 264 267 268 269 271 273 272 273 276 275 273 272 274 275 277 279 280 280 281 280 280 278 278 278 279 280 283 284 284 284 285 284 283 285 286 286 287 288 287 284 282 280
259 261 263 266 268 270 272 273 272 272 272 271 271 272 273 274 276 277 279 280 282 281 278 278 277 277 279 280 282 282 282 283 284 285 284 285 285 286 286 287 285 283 280 278
261 262 264 266 268 270 274 274 273 273 272 271 272 272 271 272 274 276 277 279 281 281 279 277 276 279 280 281 281 282 282 283 283 284 285 285 286 286 286 285 283 282 279 278
262 264 266 267 269 271 272 272 273 273 271 271 271 272 273 274 275 276 279 281 281 281 280 278 277 278 279 281 282 281 282 283 284 284 285 286 286 287 285 283 281 279 277 277
262 265 267 269 271 272 274 273 272 273 272 270 269 271 273 275 275 276 278 280 279 279 279 279 278 278 279 280 281 281 282 282 283 283 283 283 286 286 284 282 281 278 276 276
262 264 267 270 271 273 275 274 273 273 274 273 273 273 275 276 276 276 277 278 279 279 279 279 279 279 279 280 280 281 282 282 282 282 282 282 284 285 284 280 279 279 277 276
264 266 266 268 269 272 275 275 275 275 275 275 275 276 276 277 277 277 278 278 278 279 280 279 279 279 280 281 281 281 281 282 281 281 282 281 281 282 283 280 279 279 278 277
263 266 268 270 271 273 273 273 275 276 277 277 277 277 278 279 279 280 279 279 279 280 280 278 278 279 279 280 280 281 280 280 281 281 281 281 280 280 281 280 279 278 278 277
263 264 267 269 272 273 274 273 275 276 276 277 277 277 277 277 278 279 280 280 280 280 280 279 278 278 280 281 280 280 279 279 280 281 281 281 281 280 280 279 277 276 276 276
262 264 266 267 270 271 273 274 274 275 276 277 279 278 277 277 277 277 277 279 280 280 281 280 279 279 279 280 281 279 279 278 278 280 282 281 281 279 279 277 277 276 275 275
261 264 266 267 268 270 272 273 274 275 276 277 278 278 279 280 279 277 278 280 281 280 280 280 280 280 280 280 280 279 278 277 277 279 280 280 279 277 276 275 275 274 273 273